FW3600 Weather Reports


time (UTC)temp
C
wind
direction
speed
KPH
gust
KPH
rain 1hr
cm
rain 24hr
cm
rain mn
cm
humidity
%
barometer
mb
20260505171602 26 178 8.0 19.3 0.00 0.00 0.00 46 1010.3
20260505171047 26 196 11.3 19.3 0.00 0.00 0.00 46 1010.4
20260505170517 26 193 8.0 14.5 0.00 0.00 0.00 48 1010.6
20260505170139 26 200 6.4 14.5 0.00 0.00 0.00 46 1010.5
20260505165518 26 192 4.8 16.1 0.00 0.00 0.00 48 1010.4
20260505165045 26 188 8.0 16.1 0.00 0.00 0.00 48 1010.6
20260505164523 26 169 8.0 12.9 0.00 0.00 0.00 46 1010.6
20260505164016 26 200 4.8 11.3 0.00 0.00 0.00 47 1010.6
20260505163535 26 198 4.8 12.9 0.00 0.00 0.00 46 1010.5
20260505163030 26 228 6.4 12.9 0.00 0.00 0.00 48 1010.6
20260505162514 26 208 6.4 17.7 0.00 0.00 0.00 48 1010.8
20260505162058 26 209 9.7 17.7 0.00 0.00 0.00 47 1010.7
20260505161519 26 220 6.4 14.5 0.00 0.00 0.00 48 1010.7
20260505161010 25 140 8.0 14.5 0.00 0.00 0.00 48 1010.7
20260505160505 25 196 6.4 12.9 0.00 0.00 0.00 50 1010.8
20260505153059 25 197 4.8 11.3 0.00 0.00 0.00 51 1011.4
20260505152535 24 204 4.8 11.3 0.00 0.00 0.00 53 1011.3
20260505152016 25 232 3.2 6.4 0.00 0.00 0.00 52 1011.4
20260505151504 24 260 1.6 6.4 0.00 0.00 0.00 53 1011.4
20260505151057 24 219 3.2 11.3 0.00 0.00 0.00 54 1011.3
20260505150541 23 200 3.2 12.9 0.00 0.00 0.00 53 1011.2
20260505140529 21 205 3.2 8.0 0.00 0.00 0.00 62 1012.0
20260505124511 17 187 1.6 9.7 0.00 0.00 0.00 74 1012.4
20260505124037 17 213 3.2 9.7 0.00 0.00 0.00 72 1012.3
20260505123600 17 178 4.8 9.7 0.00 0.00 0.00 73 1012.4
20260505123051 16 227 3.2 9.7 0.00 0.00 0.00 74 1012.4
20260505122505 16 201 3.2 9.7 0.00 0.00 0.00 75 1012.2
20260505122044 16 220 4.8 11.3 0.00 0.00 0.00 75 1012.2
20260505121605 16 138 4.8 11.3 0.00 0.00 0.00 75 1012.2
20260505121015 16 171 6.4 11.3 0.00 0.00 0.00 76 1012.1
20260505120535 15 200 3.2 11.3 0.00 0.00 0.00 78 1012.1
20260505120100 15 202 4.8 8.0 0.00 0.00 0.00 80 1012.1
20260505115529 15 189 3.2 8.0 0.00 0.00 0.00 81 1012.2
20260505115049 14 189 3.2 9.7 0.00 0.00 0.00 85 1012.2
20260505114616 13 198 3.2 6.4 0.00 0.00 0.00 88 1012.1
20260505114019 12 196 1.6 4.8 0.00 0.00 0.00 94 1012.1
20260505113603 12 248 0.0 3.2 0.00 0.00 0.00 97 1012.1
20260505113015 12 286 0.0 0.0 0.00 0.00 0.00 98 1012.1
20260505112549 11 286 0.0 0.0 0.00 0.00 0.00 98 1012.1
20260505112111 11 360 0.0 0.0 0.00 0.00 0.00 98 1012.0
20260505111556 11 286 0.0 0.0 0.00 0.00 0.00 97 1011.9
20260505111015 11 360 0.0 0.0 0.00 0.00 0.00 97 1012.0
20260505110533 10 360 0.0 0.0 0.00 0.00 0.00 96 1012.0
20260505102002 10 360 0.0 0.0 0.00 0.00 0.00 93 1011.8
20260505101546 10 252 0.0 0.0 0.00 0.00 0.00 93 1011.7
20260505101107 10 360 0.0 0.0 0.00 0.00 0.00 93 1011.7
20260505100517 11 360 0.0 1.6 0.00 0.00 0.00 92 1011.5
20260505100037 11 253 0.0 3.2 0.00 0.00 0.00 92 1011.6
20260505095007 11 360 0.0 0.0 0.00 0.00 0.00 90 1011.6
20260505094546 11 360 0.0 0.0 0.00 0.00 0.00 91 1011.6
20260505094029 12 196 0.0 0.0 0.00 0.00 0.00 90 1011.6
20260505093546 12 195 0.0 0.0 0.00 0.00 0.00 89 1011.6
20260505093019 12 360 0.0 0.0 0.00 0.00 0.00 88 1011.4
20260505092545 12 360 0.0 3.2 0.00 0.00 0.00 86 1011.4
20260505092014 12 196 1.6 3.2 0.00 0.00 0.00 84 1011.4
20260505091539 12 360 0.0 3.2 0.00 0.00 0.00 83 1011.4
20260505091006 12 360 0.0 0.0 0.00 0.00 0.00 83 1011.2
20260505090550 12 360 0.0 0.0 0.00 0.00 0.00 83 1011.2
20260505090030 12 257 0.0 0.0 0.00 0.00 0.00 82 1010.9
20260505085547 12 257 0.0 0.0 0.00 0.00 0.00 81 1011.0
20260505085018 12 257 0.0 3.2 0.00 0.00 0.00 80 1011.0
20260505084537 13 257 0.0 3.2 0.00 0.00 0.00 80 1011.0
20260505084059 13 221 0.0 1.6 0.00 0.00 0.00 80 1011.0
20260505083515 13 198 0.0 1.6 0.00 0.00 0.00 79 1010.9
20260505083044 13 360 0.0 3.2 0.00 0.00 0.00 79 1010.9
20260505082558 13 198 0.0 3.2 0.00 0.00 0.00 78 1011.0
20260505082019 13 360 0.0 3.2 0.00 0.00 0.00 78 1011.0
20260505081548 13 360 0.0 4.8 0.00 0.00 0.00 79 1011.0
20260505081021 13 360 1.6 4.8 0.00 0.00 0.00 79 1011.0
20260505080538 13 360 1.6 4.8 0.00 0.00 0.00 80 1011.0
20260505080104 13 360 3.2 4.8 0.00 0.00 0.00 79 1011.1
20260505075519 13 360 1.6 4.8 0.00 0.00 0.00 80 1011.0
20260505075106 13 198 1.6 4.8 0.00 0.00 0.00 81 1011.0
20260505074517 13 360 0.0 3.2 0.00 0.00 0.00 82 1011.0
20260505074038 13 360 1.6 3.2 0.00 0.00 0.00 82 1011.0
20260505073610 12 198 1.6 3.2 0.00 0.00 0.00 82 1011.0
20260505073021 13 360 1.6 3.2 0.00 0.00 0.00 82 1011.1
20260505072546 13 198 1.6 3.2 0.00 0.00 0.00 81 1011.0
20260505072015 13 198 1.6 3.2 0.00 0.00 0.00 80 1011.1
20260505071542 13 198 0.0 3.2 0.00 0.00 0.00 79 1011.1
20260505071109 13 198 1.6 4.8 0.00 0.00 0.00 78 1011.0
20260505070546 13 360 1.6 4.8 0.00 0.00 0.00 78 1011.1
20260505070033 13 204 1.6 4.8 0.00 0.00 0.00 79 1011.0
20260505065552 12 360 3.2 4.8 0.00 0.00 0.00 79 1011.0
20260505065048 12 360 0.0 3.2 0.00 0.00 0.00 79 1011.0
20260505064514 12 360 0.0 3.2 0.00 0.00 0.00 79 1011.0
20260505064049 12 360 0.0 3.2 0.00 0.00 0.00 79 1011.1
20260505063523 12 234 0.0 1.6 0.00 0.00 0.00 78 1011.0
20260505063001 12 360 0.0 1.6 0.00 0.00 0.00 77 1011.1
20260505062545 12 277 0.0 1.6 0.00 0.00 0.00 77 1011.1
20260505062020 12 275 0.0 1.6 0.00 0.00 0.00 75 1011.1
20260505061504 12 360 0.0 1.6 0.00 0.00 0.00 75 1011.2
20260505061045 13 360 0.0 1.6 0.00 0.00 0.00 74 1011.1
20260505060523 13 360 0.0 0.0 0.00 0.00 0.00 74 1011.1
20260505060104 13 277 0.0 1.6 0.00 0.00 0.00 73 1011.2
20260505055522 13 275 0.0 3.2 0.00 0.00 0.00 72 1011.1
20260505055056 13 360 0.0 3.2 0.00 0.00 0.00 71 1011.1
20260505054633 13 360 0.0 3.2 0.00 0.00 0.00 71 1011.1
20260505054038 13 252 0.0 3.2 0.00 0.00 0.00 70 1011.1
20260505053558 14 360 0.0 3.2 0.00 0.00 0.00 69 1011.0
20260505053032 14 232 0.0 4.8 0.00 0.00 0.00 68 1011.1
20260505052552 15 360 1.6 6.4 0.00 0.00 0.00 67 1011.0
20260505052048 15 202 1.6 6.4 0.00 0.00 0.00 66 1011.0
20260505051611 15 190 1.6 8.0 0.00 0.00 0.00 66 1011.0
20260505051059 15 175 1.6 8.0 0.00 0.00 0.00 66 1011.1
20260505050533 15 360 3.2 6.4 0.00 0.00 0.00 66 1011.2
20260505041530 13 194 3.2 4.8 0.00 0.00 0.00 68 1011.1
20260505041109 13 187 1.6 6.4 0.00 0.00 0.00 70 1011.2
20260505040520 12 360 1.6 4.8 0.00 0.00 0.00 73 1011.2
20260505040002 12 360 0.0 3.2 0.00 0.00 0.00 75 1011.1
20260505035534 11 186 0.0 1.6 0.00 0.00 0.00 77 1011.3
20260505035006 11 360 0.0 1.6 0.00 0.00 0.00 77 1011.1
20260505034525 12 360 0.0 0.0 0.00 0.00 0.00 77 1011.2
20260505034049 12 360 0.0 0.0 0.00 0.00 0.00 76 1011.2
20260505033524 12 186 0.0 0.0 0.00 0.00 0.00 74 1011.2
20260505033056 12 186 0.0 0.0 0.00 0.00 0.00 73 1011.3
20260505032547 12 186 0.0 0.0 0.00 0.00 0.00 72 1011.3
20260505032006 12 186 0.0 0.0 0.00 0.00 0.00 73 1011.4
20260505031527 12 186 0.0 0.0 0.00 0.00 0.00 74 1011.4
20260505031002 12 186 0.0 1.6 0.00 0.00 0.00 73 1011.5
20260505030530 12 360 0.0 1.6 0.00 0.00 0.00 73 1011.4
20260505030109 12 186 0.0 1.6 0.00 0.00 0.00 74 1011.4
20260505025517 12 186 0.0 1.6 0.00 0.00 0.00 74 1011.3
20260505025039 12 186 0.0 0.0 0.00 0.00 0.00 73 1011.4
20260505024608 12 186 0.0 0.0 0.00 0.00 0.00 74 1011.4
20260505024019 12 186 0.0 0.0 0.00 0.00 0.00 73 1011.6
20260505023550 12 186 0.0 0.0 0.00 0.00 0.00 72 1011.7
20260505023041 12 186 0.0 0.0 0.00 0.00 0.00 72 1011.6
20260505022606 12 186 0.0 0.0 0.00 0.00 0.00 71 1011.7
20260505022041 12 186 0.0 0.0 0.00 0.00 0.00 71 1011.7
20260505021519 13 186 0.0 0.0 0.00 0.00 0.00 70 1011.7
20260505021044 13 186 0.0 1.6 0.00 0.00 0.00 69 1011.7
20260505020506 13 186 0.0 1.6 0.00 0.00 0.00 70 1011.7
20260505020025 13 186 0.0 1.6 0.00 0.00 0.00 70 1011.7
20260505015550 13 186 0.0 0.0 0.00 0.00 0.00 69 1011.7
20260505015030 13 186 0.0 0.0 0.00 0.00 0.00 68 1011.6
20260505014512 13 186 0.0 0.0 0.00 0.00 0.00 67 1011.6
20260505014048 13 360 0.0 0.0 0.00 0.00 0.00 66 1011.6
20260505013539 14 360 0.0 1.6 0.00 0.00 0.00 65 1011.6
20260505013031 14 360 0.0 1.6 0.00 0.00 0.00 64 1011.5
20260505012502 14 360 0.0 0.0 0.00 0.00 0.00 64 1011.4
20260505012053 15 360 0.0 0.0 0.00 0.00 0.00 63 1011.3
20260505011521 15 360 0.0 0.0 0.00 0.00 0.00 62 1011.2
20260505011058 15 360 0.0 0.0 0.00 0.00 0.00 61 1011.2
20260505010525 15 186 0.0 0.0 0.00 0.00 0.00 59 1011.1
20260505010002 15 186 0.0 0.0 0.00 0.00 0.00 59 1011.1
20260505005526 16 186 0.0 1.6 0.00 0.00 0.00 58 1011.1
20260505005049 16 186 0.0 1.6 0.00 0.00 0.00 58 1011.1
20260505004524 16 186 0.0 1.6 0.00 0.00 0.00 57 1011.1
20260505004003 17 186 0.0 1.6 0.00 0.00 0.00 55 1010.9
20260505003547 17 186 0.0 1.6 0.00 0.00 0.00 54 1010.9
20260505003001 17 186 0.0 3.2 0.00 0.00 0.00 54 1010.9
20260505002527 17 186 0.0 4.8 0.00 0.00 0.00 53 1010.9
20260505002044 18 186 1.6 4.8 0.00 0.00 0.00 51 1010.8
20260505001518 18 194 1.6 4.8 0.00 0.00 0.00 51 1010.7
20260505001103 18 192 1.6 4.8 0.00 0.00 0.00 50 1010.7
20260505000537 18 201 1.6 6.4 0.00 0.00 0.00 49 1010.7
20260505000028 18 188 3.2 9.7 0.00 0.00 0.00 49 1010.7
20260504235601 18 203 3.2 9.7 0.00 0.00 0.00 49 1010.7
20260504235030 18 200 3.2 8.0 0.00 0.00 0.00 48 1010.7
20260504234520 18 200 1.6 6.4 0.00 0.00 0.00 49 1010.6
20260504234001 18 195 3.2 12.9 0.00 0.00 0.00 47 1010.5
20260504233522 18 201 4.8 12.9 0.00 0.00 0.00 47 1010.5
20260504233105 19 207 1.6 6.4 0.00 0.00 0.00 47 1010.5
20260504232536 19 194 3.2 8.0 0.00 0.00 0.00 48 1010.5
20260504232056 19 192 3.2 11.3 0.00 0.00 0.00 47 1010.5
20260504231521 19 196 4.8 11.3 0.00 0.00 0.00 46 1010.4
20260504231040 20 204 4.8 9.7 0.00 0.00 0.00 46 1010.4
20260504230505 20 188 6.4 12.9 0.00 0.00 0.00 46 1010.3
20260504230101 20 200 8.0 12.9 0.00 0.00 0.00 46 1010.4
20260504225540 20 223 3.2 12.9 0.00 0.00 0.00 46 1010.5
20260504225059 20 197 8.0 12.9 0.00 0.00 0.00 46 1010.5
20260504224528 20 212 6.4 11.3 0.00 0.00 0.00 46 1010.4
20260504224056 20 209 4.8 12.9 0.00 0.00 0.00 46 1010.4
20260504223523 20 179 4.8 12.9 0.00 0.00 0.00 46 1010.5
20260504223050 20 196 4.8 9.7 0.00 0.00 0.00 46 1010.4
20260504222519 20 214 6.4 14.5 0.00 0.00 0.00 45 1010.5
20260504222055 20 202 4.8 14.5 0.00 0.00 0.00 47 1010.6
20260504221506 20 150 6.4 11.3 0.00 0.00 0.00 46 1010.5
20260504221025 20 188 4.8 14.5 0.00 0.00 0.00 46 1010.5
20260504220601 20 190 9.7 14.5 0.00 0.00 0.00 46 1010.6
20260504220036 20 196 6.4 14.5 0.00 0.00 0.00 46 1010.6
20260504215518 20 201 6.4 14.5 0.00 0.00 0.00 45 1010.6
20260504215101 20 178 8.0 14.5 0.00 0.00 0.00 45 1010.7
20260504214511 20 182 6.4 11.3 0.00 0.00 0.00 45 1010.6
20260504214056 20 188 4.8 11.3 0.00 0.00 0.00 47 1010.6
20260504213506 20 171 6.4 14.5 0.00 0.00 0.00 45 1010.7
20260504213136 20 146 9.7 17.7 0.00 0.00 0.00 45 1010.7
20260504212546 20 194 8.0 17.7 0.00 0.00 0.00 45 1010.7
20260504212001 20 224 4.8 9.7 0.00 0.00 0.00 47 1010.8
20260504211549 20 204 4.8 9.7 0.00 0.00 0.00 46 1010.7
20260504211010 20 153 4.8 9.7 0.00 0.00 0.00 46 1010.7
20260504210530 20 211 3.2 14.5 0.00 0.00 0.00 45 1010.7
20260504210106 20 183 6.4 14.5 0.00 0.00 0.00 46 1010.8
20260504205610 20 167 4.8 11.3 0.00 0.00 0.00 47 1010.7
20260504205024 20 156 6.4 12.9 0.00 0.00 0.00 46 1010.8
20260504204509 20 187 3.2 12.9 0.00 0.00 0.00 45 1010.7
20260504204038 20 198 8.0 12.9 0.00 0.00 0.00 45 1010.8
20260504203558 20 199 6.4 12.9 0.00 0.00 0.00 46 1010.8
20260504203019 20 206 3.2 12.9 0.00 0.00 0.00 45 1010.9
20260504202528 20 205 6.4 14.5 0.00 0.00 0.00 45 1010.9
20260504202048 20 193 8.0 14.5 0.00 0.00 0.00 44 1010.9
20260504201616 20 200 8.0 14.5 0.00 0.00 0.00 44 1010.9
20260504201018 21 196 3.2 14.5 0.00 0.00 0.00 43 1011.0
20260504200538 21 188 8.0 11.3 0.00 0.00 0.00 42 1011.1
20260504195507 21 212 4.8 17.7 0.00 0.00 0.00 44 1011.0
20260504195027 21 186 8.0 17.7 0.00 0.00 0.00 43 1011.0
20260504194603 21 209 4.8 12.9 0.00 0.00 0.00 43 1011.1
20260504194022 21 191 6.4 14.5 0.00 0.00 0.00 42 1011.1
20260504193542 21 201 4.8 14.5 0.00 0.00 0.00 45 1011.1
20260504193102 21 235 6.4 11.3 0.00 0.00 0.00 42 1011.2
20260504192511 21 191 4.8 20.9 0.00 0.00 0.00 44 1011.1
20260504192032 20 167 11.3 20.9 0.00 0.00 0.00 43 1011.1
20260504191526 21 194 4.8 14.5 0.00 0.00 0.00 42 1011.1
20260504191102 21 200 8.0 14.5 0.00 0.00 0.00 43 1011.2
20260504190512 21 234 8.0 16.1 0.00 0.00 0.00 44 1011.3
20260504190040 21 225 8.0 16.1 0.00 0.00 0.00 42 1011.3
20260504185552 21 189 3.2 14.5 0.00 0.00 0.00 46 1011.6
20260504185003 21 198 6.4 11.3 0.00 0.00 0.00 43 1011.7
20260504184559 21 169 4.8 11.3 0.00 0.00 0.00 44 1011.5
20260504184016 21 240 4.8 11.3 0.00 0.00 0.00 44 1011.8
20260504183536 21 195 3.2 12.9 0.00 0.00 0.00 46 1011.7
20260504183056 21 196 6.4 12.9 0.00 0.00 0.00 45 1011.8
20260504182505 21 174 4.8 12.9 0.00 0.00 0.00 43 1011.8
20260504182025 21 167 4.8 9.7 0.00 0.00 0.00 43 1011.9
20260504181548 21 232 3.2 11.3 0.00 0.00 0.00 43 1011.9
20260504181015 20 244 3.2 12.9 0.00 0.00 0.00 44 1012.1
20260504180540 21 234 6.4 12.9 0.00 0.00 0.00 43 1012.2
20260504180201 20 187 4.8 11.3 0.00 0.00 0.00 45 1012.3
20260504175533 20 215 3.2 14.5 0.00 0.00 0.00 42 1012.4
20260504175059 20 219 6.4 14.5 0.00 0.00 0.00 42 1012.4
20260504174625 20 188 8.0 14.5 0.00 0.00 0.00 43 1012.5
20260504174054 20 180 6.4 16.1 0.00 0.00 0.00 46 1012.5
20260504173523 20 167 6.4 12.9 0.00 0.00 0.00 44 1012.5
20260504173018 20 239 4.8 14.5 0.00 0.00 0.00 43 1012.7
20260504172541 20 207 6.4 14.5 0.00 0.00 0.00 42 1012.7
20260504172104 20 193 6.4 12.9 0.00 0.00 0.00 45 1012.7